This is the latest recevied weather packets stored in our database for station/object KK6MIG-13. If no packets are shown the sender has not sent any weather packets the latest 10 day(s).
| Time | Temp. | Humidity | Pressure | Rain* | Wind** | Luminosity | Snow |
|---|---|---|---|---|---|---|---|
| 1788049754 | 16.67° C | 40% | 1012.5 hPa | 0 mm | - | 413 W/m² | - |
| 1788049695 | 16.67° C | 39% | 1012.5 hPa | 0 mm | - | 413 W/m² | - |
| 1788049635 | 16.67° C | 38% | 1012.5 hPa | 0 mm | - | 418 W/m² | - |
| 1788049574 | 16.67° C | 38% | 1012.5 hPa | 0 mm | - | 422 W/m² | - |
| 1788049509 | 16.67° C | 37% | 1012.6 hPa | 0 mm | - | 424 W/m² | - |
| 1788049449 | 16.67° C | 36% | 1012.5 hPa | 0 mm | - | 429 W/m² | - |
| 1788049389 | 16.67° C | 37% | 1012.6 hPa | 0 mm | - | 429 W/m² | - |
| 1788049329 | 16.67° C | 37% | 1012.6 hPa | 0 mm | - | 434 W/m² | - |
| 1788049268 | 16.67° C | 33% | 1012.5 hPa | 0 mm | - | 438 W/m² | - |
| 1788049203 | 16.67° C | 37% | 1012.6 hPa | 0 mm | - | 439 W/m² | - |
| 1788049143 | 16.67° C | 39% | 1012.6 hPa | 0 mm | - | 443 W/m² | - |
| 1788049082 | 16.67° C | 36% | 1012.6 hPa | 0 mm | - | 448 W/m² | - |
| 1788049022 | 16.67° C | 34% | 1012.6 hPa | 0 mm | - | 448 W/m² | - |
| 1788048962 | 16.67° C | 36% | 1012.6 hPa | 0 mm | - | 454 W/m² | - |
| 1788048899 | 16.67° C | 34% | 1012.7 hPa | 0 mm | - | 455 W/m² | - |
| 1788048836 | 16.67° C | 33% | 1012.7 hPa | 0 mm | - | 462 W/m² | - |
| 1788048776 | 16.67° C | 32% | 1012.7 hPa | 0 mm | - | 464 W/m² | - |
| 1788048716 | 16.67° C | 35% | 1012.8 hPa | 0 mm | - | 466 W/m² | - |
| 1788048669 | 16.67° C | 36% | 1012.8 hPa | 0 mm | - | 471 W/m² | - |
| 1788048591 | 16.67° C | 37% | 1012.8 hPa | 0 mm | - | 473 W/m² | - |
| 1788048531 | 16.67° C | 37% | 1012.8 hPa | 0 mm | - | 478 W/m² | - |
| 1788048471 | 16.67° C | 33% | 1012.8 hPa | 0 mm | - | 480 W/m² | - |
| 1788048410 | 16.67° C | 32% | 1012.7 hPa | 0 mm | - | 483 W/m² | - |
| 1788048349 | 16.67° C | 37% | 1012.8 hPa | 0 mm | - | 485 W/m² | - |
| 1788048284 | 16.67° C | 37% | 1012.8 hPa | 0 mm | - | 490 W/m² | - |
* Rain latest hour (hover to see other rain measurements)
** Current wind speed in m/s (hover to see current wind gust speed)